This is the latest recevied weather packets stored in our database for station/object KA9CBS. If no packets are shown the sender has not sent any weather packets the latest 10 day(s).
| Time | Temp. | Humidity | Pressure | Rain* | Wind** | Luminosity | Snow |
|---|---|---|---|---|---|---|---|
| 1777735083 | 12.22° C | 75% | 1020.1 hPa | 0 mm | - | 83 W/m² | - |
| 1777734779 | 12.22° C | 74% | 1020 hPa | 0 mm | - | 161 W/m² | - |
| 1777734477 | 12.22° C | 75% | 1020 hPa | 0 mm | - | 246 W/m² | - |
| 1777734173 | 12.78° C | 76% | 1019.9 hPa | 0 mm | - | 327 W/m² | - |
| 1777733869 | 12.78° C | 75% | 1019.7 hPa | 0 mm | - | 346 W/m² | - |
| 1777733566 | 12.78° C | 76% | 1019.8 hPa | 0 mm | - | 488 W/m² | - |
| 1777733262 | 12.22° C | 77% | 1019.6 hPa | 0 mm | - | 275 W/m² | - |
| 1777732960 | 12.78° C | 76% | 1019.3 hPa | 0 mm | - | 296 W/m² | - |
| 1777732655 | 12.78° C | 77% | 1019.4 hPa | 0 mm | - | 588 W/m² | - |
| 1777732353 | 12.78° C | 76% | 1019.4 hPa | 0 mm | - | 205 W/m² | - |
| 1777732051 | 12.22° C | 79% | 1019.3 hPa | 0 mm | - | 569 W/m² | - |
| 1777731747 | 11.67° C | 81% | 1019.5 hPa | 0 mm | - | 549 W/m² | - |
| 1777731444 | 11.11° C | 84% | 1019.4 hPa | 0 mm | - | 451 W/m² | - |
| 1777731143 | 10.56° C | 85% | 1019.4 hPa | 0 mm | - | 322 W/m² | - |
| 1777730840 | 10.56° C | 86% | 1019.7 hPa | 0 mm | - | 140 W/m² | - |
| 1777730538 | 10.56° C | 88% | 1019.1 hPa | 0 mm | - | 254 W/m² | - |
| 1777730233 | 10° C | 88% | 1019.2 hPa | 0 mm | - | 109 W/m² | - |
| 1777729930 | 10° C | 89% | 1019.3 hPa | 0 mm | - | 128 W/m² | - |
| 1777729626 | 10° C | 89% | 1019.3 hPa | 0 mm | - | 146 W/m² | - |
| 1777729323 | 9.44° C | 90% | 1019.2 hPa | 0 mm | - | 134 W/m² | - |
| 1777729020 | 9.44° C | 90% | 1019.4 hPa | 0 mm | - | 114 W/m² | - |
| 1777728716 | 9.44° C | 91% | 1019.5 hPa | 0 mm | - | 108 W/m² | - |
| 1777728413 | 9.44° C | 92% | 1019.2 hPa | 0 mm | - | 98 W/m² | - |
| 1777728110 | 8.89° C | 93% | 1019.2 hPa | 0 mm | - | 98 W/m² | - |
| 1777727807 | 8.89° C | 94% | 1019.1 hPa | 0 mm | - | 106 W/m² | - |
* Rain latest hour (hover to see other rain measurements)
** Current wind speed in m/s (hover to see current wind gust speed)